Regional Weather Roundup
Issued by NWS

Home | Current Version | Previous Version | Graphics & Text | Print | Product List | Glossary On
Versions: 1 2 3 4 5 6 7 8 9 10 11 12 13 14 15 16 17 18 19 20 21 22 23 24 25 26 27
000
ASUS45 KBOU 180706
RWRCO

WEATHER ROUNDUP FOR COLORADO
NATIONAL WEATHER SERVICE DENVER/BOULDER CO
100 AM MDT FRI APR 18 2014

NOTE: "FAIR" INDICATES FEW OR NO CLOUDS BELOW 12000 FEET WITH NO
SIGNIFICANT WEATHER AND/OR OBSTRUCTIONS TO VISIBILITY.

COZ001>005-013-030-031-180800-
...NORTHWEST COLORADO...

CITY           SKY/WX    TMP DP  RH WIND       PRES   REMARKS
CRAIG          CLEAR     36  26  67 CALM      30.08R
HAYDEN         CLEAR     39  25  56 E9        30.11R
MEEKER         CLEAR     38  26  62 NE6       30.09S
MOUNT WERNER   CLEAR     37  12  35 SW15      30.23S
STEAMBOAT SPGS CLEAR     37  23  55 CALM      30.10S
WALDEN         PTCLDY    32  21  64 E8        30.12R WCI  25
$$

COZ006>008-011-180800-
...WEST CENTRAL VALLEYS...

CITY           SKY/WX    TMP DP  RH WIND       PRES   REMARKS
GRAND JUNCTION CLEAR     48  26  42 E5        30.03S
MONTROSE       CLEAR     47  26  44 SE12      30.12R
EAGLE          CLEAR     37  27  65 E6        30.15R
RIFLE          CLEAR     39  28  64 E3        30.10R
DELTA          CLEAR     46  29  51 NE5       30.09R
NUCLA            N/A     50  23  34 E10       30.13S
$$

COZ017>023-064>068-180800-
...SOUTHWEST COLORADO...

CITY           SKY/WX    TMP DP  RH WIND       PRES   REMARKS
DURANGO        CLEAR     37  18  46 N6        30.17S
CORTEZ         CLEAR     34  23  64 CALM      30.12S
PAGOSA SPRINGS CLEAR     35  20  54 NW3       30.23R
TELLURIDE      NOT AVBL
WOLF CREEK PAS CLEAR     30  14  51 SW28      30.36R WCI  16
$$

COZ009-010-012-014-032>034-037-058>063-180800-
...CENTRAL COLORADO...

CITY           SKY/WX    TMP DP  RH WIND       PRES   REMARKS
ASPEN          CLEAR     34  21  59 S6        30.17R WCI  29
BUENA VISTA    CLEAR     37  26  64 CALM      30.17R
COPPER MTN     CLEAR     34  14  44 SW14G21   30.29S WCI  24
BERTHOUD PASS  FAIR      27  18  69 W22G30    30.28R WCI  12
COTTONWOOD PAS CLEAR     45  14  29 W17G30    30.22S
GUNNISON       CLEAR     30  21  69 CALM      30.25R
KREMMLING      CLEAR     36  23  60 CALM      30.13R
LEADVILLE      CLEAR     25  16  68 NE7       30.23R WCI  17
MONARCH PASS   CLEAR     30  18  59 SW25      30.42R WCI  16
SALIDA         CLEAR     40  33  76 E5        30.24R
SUNLIGHT       CLEAR     34  21  60 CALM      30.27S
WILKERSON PASS CLEAR     32  18  55 SW10G20   30.28R WCI  24
$$

COZ069>075-180800-
...SAN LUIS VALLEY/SANGRE DE CRISTO MOUNTAINS...

CITY           SKY/WX    TMP DP  RH WIND       PRES   REMARKS
ALAMOSA        CLEAR     37  27  67 SE8       30.20R
LA VETA PASS   CLEAR     36  19  51 SW14G32   30.24R
SAGUACHE       NOT AVBL
$$

COZ035-036-038>040-180800-
...NORTHERN COLORADO FRONT RANGE...

CITY           SKY/WX    TMP DP  RH WIND       PRES   REMARKS
DENVER INTL AP PTCLDY    45  32  60 S14       30.01R
DMNS CITY PARK   N/A     48  32  53 S8        30.01S
AURORA         PTCLDY    46  32  57 S14       30.02R
FRONT RANGE AP NOT AVBL
ERIE MUNI ARPT PTCLDY    42  35  75 CALM      30.00S
BOULDER MUN AP PTCLDY    45  30  57 CALM      30.00S
CENTENNIAL     PTCLDY    47  30  51 S13       30.04R
BROOMFIELD     PTCLDY    43  32  65 CALM      30.02S
FORT COLLINS   CLEAR     41  28  60 CALM      30.01S
LONGMONT       CLEAR     42  32  66 W6        30.02S
$$

COZ041-046-047-076>085-087-088-180800-
...PIKES PEAK/PALMER DIVIDE AND SOUTHERN FOOTHILLS...

CITY           SKY/WX    TMP DP  RH WIND       PRES   REMARKS
COLO. SPRINGS  PTCLDY    37  32  82 E6        30.11S
A. F. ACADEMY  CLEAR     33  31  90 N5        30.10F WCI  29
ELLICOTT       NOT AVBL
FALCON         CLEAR     33  31  94 CALM      30.13S
FORT CARSON    PTCLDY    37  33  87 MISG      30.10S
LIMON          CLEAR     33  32  96 SE10      30.11R WCI  25
MONUMENT HILL  PTCLDY    36  32  87 S8        30.09S
TRINIDAD       PTCLDY    45  32  60 SW14      30.09S
$$

COZ042>045-048>051-090-091-180800-
...NORTHEAST COLORADO...

CITY           SKY/WX    TMP DP  RH WIND       PRES   REMARKS
GREELEY ARPT   CLEAR     43  30  61 CALM      30.00S
AKRON          CLEAR     41  35  79 S18G26    30.03F
BURLINGTON     CLEAR     38  34  85 S21       30.11F
WRAY           CLEAR     42  38  85 SW9       30.08F
STERLING       CLEAR     43  39  87 SW8       30.02S
HOLYOKE        CLEAR     43  39  87 S14       30.05F
FORT MORGAN    CLEAR     43  35  72 S7        30.03S
$$

COZ086-089-092>099-180800-
...SOUTHEAST COLORADO...

CITY           SKY/WX    TMP DP  RH WIND       PRES   REMARKS
PUEBLO         PTCLDY    43  37  79 N8        30.07R
LA JUNTA       CLEAR     44  35  70 SE7       30.08S
LAMAR          CLEAR     42  33  70 S20       30.10F
SPRINGFIELD      N/A     36  33  89 S14       30.16F
$$



USA.gov is the U.S. government's official web portal to all federal, state and local government web resources and services.